Lancaster, OH

12:22 AM EST on February 24, 2017 (GMT -0500)
Fairfield County

Weather History for KLHQ - December, 2013

Change the Weather History Date:

Wednesday, December 4, 2013

  Actual Average Record
Temperature  
Mean Temperature 54 °F -  
Max Temperature 64 °F 43 °F 78 °F (1982)
Min Temperature 43 °F 24 °F -3 °F (1966)
Degree Days  
Heating Degree Days 12    
Growing Degree Days 4 (Base 50)    
Moisture  
Dew Point 47 °F    
Average Humidity 77    
Maximum Humidity 93    
Minimum Humidity 60    
Precipitation  
Precipitation 0.00 in - - ()
Sea Level Pressure  
Sea Level Pressure 29.86 in    
Wind  
Wind Speed 5 mph (SSE)    
Max Wind Speed 13 mph    
Max Gust Speed 20 mph    
Visibility 9 miles    
Events      
Averages and records for this station are not official NWS values.
T = Trace of Precipitation, MM = Missing Value Source: NWS Daily Summary

Daily Weather History Graph

Daily Weather History Graph

Search for Another Location

Airport or City:

Trip Planner

Search our weather history database for the weather conditions in past years. The results will help you decide how hot, cold, wet, or windy it might be!

Date:

Astronomy

Dec. 04, 2013 Rise Set
Actual Time 7:35 AM EST 5:06 PM EST
Civil Twilight 7:05 AM EST 5:36 PM EST
Nautical Twilight 6:32 AM EST 6:09 PM EST
Astronomical Twilight 5:59 AM EST 6:42 PM EST
Moon 9:02 AM EST (12/4) 7:15 PM EST (12/4)
Length of Visible Light 10h 30m
Length of Day
9h 30m
Waxing Crescent, 4% of the Moon is Illuminated
Dec 4
Waxing Crescent
Dec 9
First Quarter
Dec 17
Full
Dec 25
Last Quarter
Jan 1
New

Hourly Weather History & Observations

Time (EST) Temp. Windchill Dew Point Humidity Pressure Visibility Wind Dir Wind Speed Gust Speed Precip Events Conditions
12:53 AM 45.0 °F 43.5 °F 43.0 °F 93% 29.89 in 6.0 mi ESE 3.5 mph - N/A   Overcast
1:53 AM 44.1 °F - 42.1 °F 93% 29.89 in 6.0 mi Calm Calm - N/A   Overcast
2:53 AM 46.0 °F 43.1 °F 42.1 °F 86% 29.87 in 9.0 mi SSE 5.8 mph - N/A   Mostly Cloudy
3:53 AM 43.0 °F 40.3 °F 39.9 °F 89% 29.88 in 9.0 mi SSE 4.6 mph - N/A   Partly Cloudy
4:53 AM 44.1 °F - 41.0 °F 89% 29.90 in 7.0 mi Calm Calm - N/A   Overcast
5:53 AM 44.1 °F - 41.0 °F 89% 29.91 in 8.0 mi Calm Calm - N/A   Overcast
6:53 AM 45.0 °F - 42.1 °F 90% 29.92 in 8.0 mi Calm Calm - N/A   Overcast
7:53 AM 46.9 °F - 43.0 °F 86% 29.91 in 8.0 mi SSE 5.8 mph - N/A   Overcast
8:53 AM 46.9 °F - 43.0 °F 86% 29.93 in 7.0 mi SE 6.9 mph - N/A   Scattered Clouds
9:53 AM 50.0 °F - 44.1 °F 80% 29.94 in 9.0 mi SE 5.8 mph - N/A   Clear
10:53 AM 54.0 °F - 45.0 °F 72% 29.93 in 9.0 mi SE 9.2 mph - N/A   Clear
11:53 AM 55.9 °F - 46.0 °F 69% 29.89 in 10.0 mi ESE 9.2 mph - N/A   Clear
12:53 PM 59.0 °F - 48.0 °F 67% 29.86 in 10.0 mi SE 9.2 mph - N/A   Clear
1:53 PM 62.1 °F - 50.0 °F 65% 29.83 in 10.0 mi South 12.7 mph 19.6 mph N/A   Scattered Clouds
2:53 PM 64.0 °F - 50.0 °F 60% 29.80 in 10.0 mi SSE 12.7 mph - N/A   Mostly Cloudy
3:53 PM 63.0 °F - 51.1 °F 65% 29.81 in 10.0 mi SSE 8.1 mph - N/A   Overcast
4:53 PM 62.1 °F - 52.0 °F 70% 29.80 in 10.0 mi SSE 9.2 mph - N/A   Overcast
5:53 PM 61.0 °F - 51.1 °F 70% 29.80 in 10.0 mi SSE 11.5 mph - N/A   Overcast
6:53 PM 61.0 °F - 51.1 °F 70% 29.80 in 10.0 mi SE 9.2 mph - N/A   Overcast
7:53 PM 60.1 °F - 50.0 °F 69% 29.81 in 10.0 mi SSE 6.9 mph - N/A   Overcast
8:53 PM 57.9 °F - 50.0 °F 75% 29.80 in 10.0 mi SE 9.2 mph - N/A   Mostly Cloudy
9:53 PM 57.0 °F - 50.0 °F 77% 29.80 in 10.0 mi SSE 6.9 mph - N/A   Clear
10:53 PM 60.1 °F - 51.1 °F 72% 29.81 in 10.0 mi South 9.2 mph - N/A   Clear
11:53 PM 60.1 °F - 52.0 °F 75% 29.81 in 10.0 mi South 9.2 mph - N/A   Clear